Wind_Speed
27 26 26 27 26 26 26 26 26 25 23 21 21 21 21 22 21 21 20 20 19 19 20 21 21 21 21 21 21 20 19 18 19 20 20 20 20 20 21 21 21 21 22 22
28 27 27 28 27 27 27 26 26 25 24 22 22 23 23 23 22 22 21 20 20 20 20 21 21 22 22 22 22 21 20 20 20 20 20 21 21 21 21 21 22 22 22 23
29 28 27 28 27 27 27 27 27 27 26 24 24 24 24 23 22 22 22 22 21 21 21 21 22 22 22 22 22 22 22 22 20 20 21 22 23 22 22 22 23 23 24 24
30 29 30 28 27 27 27 28 28 28 27 26 25 24 24 24 24 23 24 24 23 22 23 23 22 23 23 23 23 23 24 23 22 22 22 23 23 23 24 24 24 24 24 24
33 32 32 29 28 27 28 28 28 28 27 27 26 26 25 25 25 26 26 25 24 24 24 24 23 23 23 24 24 24 25 24 23 23 23 23 23 24 24 24 24 24 24 24
33 33 33 30 29 29 29 28 27 28 27 27 27 27 26 26 26 26 26 25 24 24 24 24 24 24 24 25 26 26 25 24 24 24 24 23 24 24 24 25 25 25 25 25
33 33 33 31 30 30 30 29 27 27 27 27 27 27 27 27 27 27 27 26 25 25 25 24 25 25 26 26 26 26 26 25 25 25 25 24 25 25 25 25 26 26 26 26
33 34 33 32 31 31 31 30 29 28 28 28 27 27 27 27 28 28 28 27 26 25 25 25 25 25 26 26 27 26 26 26 25 26 25 25 25 26 26 27 27 27 26 26
33 32 33 33 33 32 32 31 30 29 28 29 28 28 27 27 27 27 28 27 26 26 25 25 25 25 26 27 28 27 26 25 25 25 25 26 27 28 28 27 28 27 26 27
32 31 32 32 32 32 33 32 32 31 30 29 29 28 27 26 26 27 27 26 25 25 25 26 27 27 27 27 27 27 26 26 26 26 25 27 28 28 27 27 27 26 25 26
30 30 31 31 31 31 32 32 32 31 30 29 29 29 29 28 27 27 27 26 25 25 25 26 27 27 27 27 27 26 25 26 26 27 27 27 27 26 25 25 25 24 24 24
28 29 30 30 30 30 30 30 31 31 30 29 29 29 29 29 28 27 26 25 25 25 26 26 26 27 27 27 26 26 25 24 25 26 26 25 24 24 24 23 23 24 24 24
28 28 28 29 29 29 29 29 29 29 29 29 29 29 28 28 28 27 26 26 26 25 26 26 27 27 27 26 25 25 24 24 25 25 25 24 24 24 25 24 24 24 25 25
29 28 28 28 28 28 28 28 27 27 28 28 28 29 28 28 27 27 26 26 26 26 27 27 27 27 27 26 26 25 24 24 24 24 24 24 24 24 24 24 24 24 24 24
28 28 28 28 28 28 28 28 27 27 26 26 27 28 28 27 27 27 27 27 27 27 27 27 27 26 26 26 25 25 25 24 23 23 24 24 24 24 23 23 23 24 23 23
27 28 28 27 27 27 27 27 27 27 26 26 25 26 26 26 26 26 27 27 27 26 26 26 26 26 27 27 26 25 25 25 25 25 24 25 25 24 24 24 24 24 23 24
27 27 27 27 27 26 26 26 27 27 26 26 26 26 26 26 26 26 27 27 27 27 26 26 26 27 27 27 26 27 26 26 25 24 24 24 24 24 24 24 24 24 23 23
26 26 26 26 26 26 25 25 26 26 27 26 25 25 25 26 26 26 26 27 27 27 26 26 26 26 26 26 25 26 25 25 24 24 24 24 23 23 23 23 23 22 22 23
25 26 26 26 26 25 25 24 24 25 25 25 26 26 26 27 27 27 26 26 26 26 26 26 25 25 25 25 25 25 25 25 25 25 24 24 23 23 23 23 22 22 22 23
24 24 24 25 25 25 25 24 24 24 24 25 25 25 26 26 27 26 26 25 25 25 25 25 25 25 25 25 25 25 25 25 25 26 25 25 24 23 22 22 22 22 22 23
22 24 25 24 24 24 24 24 24 24 24 24 24 24 25 25 25 25 25 25 25 24 24 25 25 24 24 24 24 24 25 25 25 25 24 24 24 23 22 22 22 23 23 23
20 22 23 23 23 23 23 23 23 23 23 23 24 23 24 24 23 24 23 23 24 24 24 24 24 23 23 23 23 24 24 24 23 24 24 24 24 24 23 22 22 23 23 23
18 19 20 21 22 22 22 22 22 22 23 23 23 23 23 23 23 23 23 23 24 24 24 23 23 23 23 22 22 22 22 22 23 23 23 23 23 23 23 23 23 23 23 23
18 18 18 19 20 20 21 21 21 22 22 22 21 21 22 23 23 23 24 23 23 23 23 22 22 22 23 22 22 22 22 23 22 22 22 22 23 23 23 23 23 23 23 22
17 17 17 18 18 19 19 19 19 19 19 19 20 20 20 21 21 22 22 22 22 22 22 21 22 22 22 22 22 22 22 22 22 22 22 22 23 23 23 23 23 23 23 23
15 16 16 16 16 16 17 18 18 17 17 18 17 18 18 19 20 20 20 20 20 20 20 19 20 21 21 21 22 22 22 22 22 22 22 22 22 22 22 23 23 23 22 22
13 13 13 13 13 14 14 15 15 16 16 16 16 17 17 18 18 18 18 19 19 18 18 18 19 19 19 20 20 20 21 21 22 22 23 23 23 22 23 23 23 23 23 22
Wind_Direction
257 258 260 261 262 263 266 270 274 277 280 284 284 285 287 288 290 293 297 298 298 297 292 289 288 289 291 291 292 292 290 288 289 288 285 285 286 286 285 285 283 280 278 278
258 258 259 260 261 263 266 269 272 274 277 280 281 282 285 287 287 290 294 297 296 297 296 291 289 289 290 290 291 292 291 288 286 286 287 286 287 285 284 285 285 283 280 279
258 259 260 260 261 263 265 267 269 272 276 278 279 280 283 285 286 288 291 296 296 295 293 290 286 286 288 290 291 292 293 290 286 284 285 285 286 287 284 284 283 282 280 281
258 259 260 264 264 264 266 267 268 272 275 276 278 280 282 284 285 287 290 292 294 294 293 291 286 285 288 289 289 290 291 291 288 286 284 285 286 287 285 283 283 282 279 280
258 259 261 263 263 264 266 267 267 270 274 275 276 279 281 283 285 288 291 293 292 293 292 290 287 287 285 285 287 290 290 289 286 287 285 284 285 286 285 283 283 282 279 279
257 259 260 262 263 264 265 266 267 270 273 275 275 277 280 283 285 287 290 291 290 290 288 288 289 289 288 287 288 289 290 288 286 286 288 287 286 286 284 282 281 281 280 278
255 258 260 262 262 263 264 267 269 271 273 276 277 280 281 282 284 287 289 290 289 291 290 290 290 290 290 289 289 288 287 288 286 285 285 284 285 286 283 281 280 279 280 278
255 257 259 262 262 263 265 267 269 271 273 274 277 280 283 284 284 285 287 288 288 288 288 287 288 289 290 290 290 289 289 287 285 285 285 284 284 286 285 283 280 279 278 278
255 257 259 260 261 263 264 266 268 270 272 273 275 278 281 283 285 285 287 287 286 286 286 285 286 288 288 289 290 289 289 287 284 284 284 285 284 286 286 284 282 280 280 279
255 255 257 260 261 262 263 266 267 268 271 273 274 276 278 281 284 285 287 288 285 284 285 284 286 286 286 287 289 289 287 286 284 283 286 287 285 285 286 285 285 283 282 280
254 255 256 259 261 262 264 265 267 268 270 272 273 275 277 279 281 282 283 283 284 286 286 285 284 284 285 286 287 287 286 286 286 287 288 289 287 286 287 287 287 285 284 283
253 254 255 257 259 262 264 265 266 268 269 270 272 275 276 278 280 281 282 282 283 285 285 286 285 284 284 284 283 284 285 287 288 290 292 292 291 291 290 287 286 285 284 285
253 254 255 257 259 262 264 265 267 269 268 269 270 272 275 278 280 281 282 283 282 283 284 284 284 284 284 285 284 285 285 286 289 291 293 294 294 293 292 288 286 286 285 286
253 255 257 257 259 262 264 266 269 271 271 269 269 270 272 274 276 278 280 282 283 284 285 284 284 282 281 282 282 283 285 286 288 288 290 292 294 294 293 290 287 287 287 286
255 257 258 259 261 262 264 267 269 271 273 272 270 271 273 275 276 278 279 281 282 283 284 283 283 281 280 281 283 283 283 285 286 287 288 290 291 292 292 292 292 291 289 288
256 258 259 259 261 264 266 268 270 272 272 274 274 274 275 276 278 280 280 280 280 282 283 283 281 278 278 280 283 284 285 287 287 287 286 287 289 290 291 292 293 292 290 289
255 257 258 259 261 264 266 268 269 271 271 273 275 276 276 278 279 279 279 280 280 281 282 283 281 278 277 278 281 283 284 285 286 286 286 287 288 288 289 290 291 290 290 291
255 256 258 259 261 264 267 269 270 271 272 272 275 278 278 278 279 280 281 283 282 281 280 282 282 279 278 279 280 282 283 283 284 286 287 286 286 287 287 289 289 289 291 293
255 256 257 259 261 263 266 268 270 271 272 272 274 276 278 278 278 279 279 281 283 283 281 281 283 282 280 279 279 280 281 282 282 285 286 286 285 285 286 288 289 290 291 292
255 255 256 258 261 264 266 267 269 270 271 272 273 276 278 279 278 279 279 281 283 284 283 281 281 284 282 280 280 279 279 281 282 283 284 284 284 283 284 286 288 289 289 289
256 255 256 259 261 265 266 267 268 270 271 271 272 274 276 277 277 278 280 281 282 285 286 283 282 283 284 282 281 282 282 281 281 281 282 283 284 285 285 286 287 289 289 289
259 259 259 259 261 264 264 265 268 269 269 270 272 273 275 277 279 279 279 282 285 286 287 287 286 286 284 284 285 285 285 283 281 280 281 282 283 284 285 286 287 287 287 287
261 262 262 261 261 261 262 264 266 267 268 271 272 273 274 277 279 281 281 282 284 285 286 287 287 285 283 284 286 287 286 285 283 282 282 282 282 283 283 284 284 284 285 285
259 261 262 262 262 262 263 264 267 269 271 272 272 274 275 277 280 281 281 282 283 285 285 286 286 285 285 285 285 285 286 287 285 283 282 282 282 283 283 282 283 283 283 283
260 262 264 266 266 265 265 267 271 274 273 273 274 275 277 280 282 281 281 281 282 284 287 289 290 288 286 286 286 288 289 288 287 285 283 283 284 284 283 282 283 283 281 280
263 263 267 271 271 271 270 271 272 274 274 275 278 279 280 281 282 281 281 284 285 288 290 292 293 292 290 289 288 288 288 287 286 285 286 285 285 284 283 284 283 281 280 280
265 268 270 274 273 271 271 272 274 276 277 278 279 282 284 285 285 286 286 288 290 290 290 292 294 295 294 291 290 291 290 288 287 287 287 287 286 284 283 283 283 282 280 278
Height
5864 5866 5866 5867 5868 5868 5868 5868 5869 5869 5869 5869 5868 5867 5866 5865 5864 5863 5861 5860 5858 5856 5855 5854 5852 5851 5850 5849 5848 5847 5846 5845 5844 5842 5841 5840 5839 5838 5837 5835 5834 5833 5833 5832
5858 5859 5859 5860 5861 5862 5862 5862 5862 5862 5863 5863 5862 5861 5860 5859 5858 5857 5856 5854 5852 5851 5849 5848 5846 5845 5844 5843 5842 5841 5839 5838 5837 5836 5835 5834 5833 5832 5831 5829 5828 5827 5826 5825
5851 5852 5852 5853 5855 5855 5856 5856 5856 5856 5857 5856 5856 5855 5855 5854 5853 5852 5850 5848 5847 5845 5843 5841 5839 5838 5837 5836 5835 5834 5833 5832 5830 5829 5828 5827 5826 5825 5824 5823 5822 5821 5820 5819
5843 5845 5844 5849 5848 5849 5849 5849 5849 5849 5850 5850 5849 5849 5848 5847 5846 5845 5844 5842 5840 5838 5836 5834 5832 5831 5830 5829 5828 5828 5826 5825 5824 5823 5821 5820 5819 5818 5816 5815 5814 5813 5812 5812
5835 5836 5837 5840 5841 5842 5842 5842 5842 5843 5843 5843 5842 5842 5841 5840 5839 5838 5836 5835 5833 5831 5829 5827 5825 5824 5823 5822 5821 5820 5819 5817 5816 5815 5814 5813 5811 5810 5809 5808 5807 5806 5805 5804
5827 5828 5829 5833 5834 5834 5835 5835 5836 5835 5835 5835 5835 5835 5835 5833 5832 5831 5829 5827 5826 5824 5821 5819 5818 5817 5816 5816 5814 5813 5812 5810 5808 5808 5807 5805 5804 5802 5801 5800 5799 5798 5797 5797
5819 5820 5821 5824 5825 5826 5828 5828 5829 5828 5828 5828 5828 5828 5828 5826 5825 5824 5822 5820 5819 5817 5815 5813 5812 5810 5809 5808 5807 5805 5804 5802 5800 5799 5798 5797 5796 5795 5793 5792 5791 5790 5789 5788
5810 5812 5816 5817 5817 5819 5820 5820 5821 5821 5821 5821 5821 5820 5820 5819 5818 5817 5815 5813 5812 5810 5808 5807 5805 5804 5803 5801 5799 5798 5796 5795 5793 5792 5791 5790 5789 5787 5786 5784 5783 5782 5781 5780
5803 5806 5807 5808 5809 5811 5811 5812 5813 5814 5814 5814 5813 5813 5813 5812 5810 5809 5808 5806 5804 5803 5801 5800 5798 5796 5795 5793 5792 5791 5789 5787 5786 5784 5783 5782 5781 5779 5778 5776 5775 5774 5773 5772
5795 5797 5798 5800 5801 5802 5803 5804 5805 5805 5806 5806 5806 5805 5805 5804 5803 5801 5800 5798 5797 5795 5794 5792 5790 5789 5787 5786 5785 5783 5781 5780 5778 5776 5775 5774 5773 5771 5770 5768 5767 5766 5765 5765
5786 5788 5790 5791 5792 5794 5795 5796 5796 5797 5797 5797 5797 5797 5797 5796 5795 5794 5793 5791 5789 5787 5786 5784 5783 5781 5780 5778 5777 5775 5774 5773 5771 5769 5768 5766 5764 5763 5762 5761 5759 5759 5758 5757
5778 5780 5782 5783 5784 5785 5786 5787 5788 5788 5789 5789 5789 5789 5788 5788 5787 5786 5785 5783 5782 5780 5778 5777 5775 5773 5772 5770 5769 5767 5766 5765 5763 5761 5760 5758 5757 5755 5754 5753 5751 5750 5750 5749
5770 5771 5773 5775 5776 5777 5778 5779 5779 5780 5780 5780 5780 5780 5779 5779 5779 5777 5776 5775 5774 5772 5771 5769 5767 5765 5764 5763 5761 5760 5758 5757 5756 5754 5753 5751 5750 5748 5747 5745 5743 5742 5742 5741
5762 5764 5765 5767 5768 5769 5770 5771 5771 5771 5771 5772 5772 5771 5771 5771 5770 5769 5768 5767 5766 5764 5763 5761 5759 5757 5756 5755 5754 5753 5751 5750 5749 5747 5746 5744 5743 5741 5739 5737 5736 5735 5734 5733
5754 5756 5757 5759 5760 5762 5762 5763 5763 5763 5763 5763 5763 5763 5762 5762 5761 5760 5759 5758 5757 5756 5754 5752 5751 5749 5748 5748 5746 5745 5744 5743 5741 5740 5739 5737 5736 5734 5732 5730 5729 5728 5727 5726
5746 5747 5749 5751 5752 5753 5754 5754 5755 5755 5755 5755 5755 5754 5754 5753 5753 5752 5751 5750 5749 5747 5745 5744 5743 5742 5741 5740 5738 5737 5737 5736 5735 5733 5732 5730 5728 5727 5725 5724 5722 5721 5720 5719
5737 5739 5741 5743 5744 5745 5745 5746 5746 5746 5746 5746 5746 5746 5746 5745 5744 5743 5742 5741 5740 5739 5737 5736 5735 5734 5733 5732 5731 5730 5729 5728 5727 5726 5724 5723 5721 5720 5718 5717 5715 5714 5713 5712
5730 5732 5733 5735 5736 5737 5737 5737 5738 5738 5738 5738 5738 5738 5738 5737 5736 5735 5734 5733 5731 5730 5729 5728 5727 5726 5725 5724 5723 5723 5722 5721 5720 5719 5717 5715 5714 5712 5711 5710 5709 5707 5706 5705
5722 5724 5726 5727 5728 5729 5730 5730 5730 5730 5730 5730 5730 5730 5730 5729 5728 5727 5726 5725 5723 5722 5722 5720 5719 5718 5717 5716 5715 5715 5714 5714 5713 5712 5710 5709 5707 5706 5705 5704 5703 5701 5700 5698
5715 5717 5718 5720 5721 5721 5722 5722 5722 5723 5723 5722 5722 5722 5722 5721 5720 5719 5718 5717 5716 5714 5713 5712 5711 5710 5709 5709 5708 5707 5707 5706 5705 5704 5703 5702 5701 5699 5698 5697 5696 5695 5693 5692
5708 5710 5711 5712 5713 5714 5714 5715 5715 5715 5715 5715 5715 5715 5714 5713 5712 5711 5710 5709 5709 5707 5705 5704 5704 5703 5702 5701 5700 5700 5699 5698 5698 5697 5696 5695 5694 5693 5692 5690 5689 5688 5687 5686
5701 5702 5704 5705 5705 5706 5707 5707 5707 5708 5708 5708 5707 5707 5707 5706 5705 5704 5703 5702 5701 5700 5698 5697 5697 5696 5696 5695 5694 5693 5692 5691 5690 5690 5689 5688 5687 5686 5685 5684 5683 5682 5680 5679
5695 5696 5697 5698 5698 5699 5700 5700 5700 5701 5701 5700 5700 5700 5699 5698 5697 5697 5696 5696 5694 5693 5692 5691 5690 5689 5689 5688 5687 5686 5685 5684 5684 5683 5682 5681 5680 5679 5678 5677 5676 5675 5674 5673
5690 5691 5691 5692 5692 5692 5693 5693 5694 5694 5693 5693 5693 5693 5692 5691 5691 5690 5689 5688 5688 5687 5686 5685 5684 5683 5682 5681 5681 5680 5679 5678 5677 5676 5675 5674 5673 5672 5671 5670 5669 5668 5667 5666
5685 5685 5686 5686 5686 5686 5687 5687 5687 5687 5687 5687 5686 5686 5685 5685 5684 5683 5682 5682 5681 5680 5679 5678 5678 5677 5676 5675 5674 5673 5672 5670 5669 5668 5668 5667 5666 5665 5664 5663 5662 5661 5660 5659
5681 5681 5681 5681 5681 5681 5681 5681 5681 5681 5681 5681 5680 5680 5680 5679 5678 5677 5676 5675 5675 5674 5673 5672 5671 5670 5669 5668 5667 5666 5664 5663 5662 5661 5660 5659 5658 5657 5656 5656 5655 5654 5653 5652
5677 5677 5677 5677 5676 5676 5677 5676 5676 5676 5676 5675 5675 5675 5674 5673 5672 5672 5670 5670 5669 5668 5668 5667 5666 5664 5663 5662 5661 5659 5658 5657 5655 5654 5653 5651 5650 5650 5649 5648 5647 5646 5645 5645